#timestamp,LO_Frequency,Hit,StdDev 
1509865215.5,286047011.5,N
1509865235.3,286047014.9,N
1509865255.2,286047015.6,N
1509865275.0,286047014.1,N
1509865275.9,286047014.1,N
1509865295.8,286047018.2,Y
1509865315.6,286047004.5,P
1509865335.4,286047005.8,N
1509865355.3,286047006.9,N
1509865375.1,286047007.4,N
1509865376.0,286047007.4,N
1509865395.8,286047009.1,Y
1509865415.7,286046995.3,P
1509865435.5,286046997.6,N
1509865455.3,286046993.4,N
1509865475.2,286046995.1,N
1509865495.9,286046994.9,N
1509865515.7,286047002.3,N
1509865535.6,286047003.7,N
1509865555.4,286047003.1,N
1509865575.2,286047001.6,N
1509865595.1,286047002.0,N
1509865596.0,286047002.0,N
1509865615.8,286047005.6,N
1509865635.6,286047008.4,N
1509865655.5,286047015.9,Y
1509865675.3,286047017.7,P
1509865695.1,286047012.9,N
1509865715.9,286047017.2,N
1509865735.7,286047018.8,N
1509865755.5,286047018.8,N
1509865775.4,286047009.5,N
1509865795.2,286047003.7,N
1509865815.0,286047000.2,N
1509865815.9,286047000.2,N
1509865835.8,286046998.4,N
1509865855.6,286047000.9,N
1509865875.4,286047001.2,N
1509865895.3,286046999.7,N
1509865915.1,286047003.9,N
1509865935.8,286046998.5,N
1509865955.7,286047002.2,N
1509865975.5,286047002.1,N
1509865995.3,286047000.5,N
1509866015.2,286046999.0,N
1509866035.0,286046995.1,N
1509866035.9,286046995.1,N
1509866055.7,286046996.3,N
1509866075.6,286046997.8,N
1509866095.4,286046996.4,N
1509866115.2,286046994.3,N
1509866135.1,286046990.4,N
1509866136.0,286046990.4,N
1509866155.8,286046993.2,N
1509866175.6,286046993.0,N
1509866195.5,286046988.8,N
1509866215.3,286046987.9,N
1509866235.1,286046987.1,N
1509866255.9,286046989.3,N
1509866275.7,286046988.1,N
1509866295.5,286046988.4,N
1509866315.4,286046989.6,N
1509866335.2,286046991.4,N
1509866355.0,286046990.5,N
1509866355.9,286046990.5,N
1509866375.8,286046987.0,N
1509866395.6,286046988.3,N
1509866415.5,286046982.6,Y
1509866435.3,286046985.5,P
1509866455.1,286046988.9,N
1509866475.9,286046988.9,P
1509866495.7,286046988.3,Y
1509866515.5,286046997.8,P
1509866535.4,286046994.1,N
1509866555.2,286046995.7,N
1509866575.0,286046996.5,N
1509866575.9,286046996.5,N
1509866595.8,286046994.9,N
1509866615.6,286046999.5,N
1509866635.4,286046997.9,N
1509866655.3,286046995.3,N
1509866675.1,286046996.0,N
1509866676.0,286046996.0,N
1509866695.8,286046996.0,N
1509866715.7,286046989.3,Y
1509866735.5,286046993.2,P
1509866755.3,286046992.8,P
1509866775.2,286046990.8,P
1509866795.0,286046990.2,Y
1509866795.9,286046990.2,P
1509866815.8,286046998.0,N
1509866835.6,286046996.0,N
1509866855.4,286046994.9,N
1509866875.3,286046995.4,N
1509866895.1,286046995.4,N
1509866896.0,286046995.4,N
1509866915.8,286046996.1,N
1509866935.7,286046992.3,Y
1509866955.5,286046998.9,P
1509866975.3,286046998.3,N
1509866995.2,286046998.4,N
1509867015.9,286046999.9,N
1509867035.7,286047003.7,N
1509867055.6,286047005.0,N
1509867075.4,286047007.0,N
1509867095.2,286047005.4,N
1509867115.1,286047000.7,N
1509867116.0,286047000.7,N
1509867135.8,286047000.8,N
1509867155.6,286047001.1,N
1509867175.5,286046997.4,N
1509867195.3,286046999.6,N
1509867215.1,286046999.6,N
1509867235.9,286046998.6,N
1509867255.7,286046999.9,N
1509867275.5,286046998.6,N
1509867295.4,286046994.9,N
1509867315.2,286046999.0,N
1509867335.0,286046998.3,N
1509867335.9,286046998.3,N
1509867355.8,286047005.5,N
1509867375.6,286047006.0,N
1509867395.4,286047006.0,N
1509867415.3,286047001.3,N
1509867435.1,286047005.3,N
1509867455.8,286047003.2,N
1509867475.7,286047002.0,N
1509867495.5,286047004.4,N
1509867515.3,286047002.1,N
1509867535.2,286047002.2,N
1509867555.0,286047001.3,N
1509867555.9,286047001.3,N
1509867575.7,286047005.6,N
1509867595.6,286047004.3,N
1509867615.4,286047009.1,Y
1509867635.3,286047006.3,P
1509867655.1,286047005.0,N
1509867656.0,286047005.0,N
1509867675.8,286047006.0,Y
1509867695.7,286047004.0,P
1509867715.5,286047004.0,P
1509867735.3,286047005.6,P
1509867755.2,286047003.1,Y
1509867775.0,286046998.2,P
1509867775.9,286046998.2,N
1509867795.8,286046994.9,N
1509867815.6,286046997.8,N
1509867835.4,286046993.4,N
1509867855.3,286046993.4,N
1509867875.1,286046995.1,N
1509867876.0,286046995.1,N
1509867895.8,286046991.9,N
1509867915.7,286046993.7,N
1509867935.5,286046991.9,N
1509867955.3,286046993.2,N
1509867975.2,286046990.5,N
1509867995.9,286046989.2,Y
1509868015.7,286046995.4,P
1509868035.6,286047002.2,P
1509868055.4,286047006.7,N
1509868075.2,286047008.0,N
1509868095.1,286047010.1,N
1509868096.0,286047010.1,N
1509868115.8,286047006.5,N
1509868135.7,286047008.1,N
1509868155.5,286047003.0,N
1509868175.3,286047004.2,N
1509868195.2,286047001.4,N
1509868215.9,286047000.6,N
1509868235.7,286047000.3,N
1509868255.6,286047002.1,N
1509868275.4,286046999.7,N
1509868295.2,286047003.3,N
1509868315.1,286047008.7,N
1509868316.0,286047008.7,N
1509868335.8,286047006.3,N
1509868355.6,286047001.3,N
1509868375.5,286046999.9,N
1509868395.3,286047005.5,N
1509868415.1,286047006.2,N
1509868435.9,286047005.4,N
1509868455.7,286047002.7,N
1509868475.5,286047002.5,N
1509868495.4,286047000.7,N
1509868515.2,286047005.0,N
1509868535.0,286047010.5,N
1509868535.9,286047010.5,N
1509868555.8,286047009.4,N
1509868575.6,286047007.7,N
1509868595.4,286047007.4,N
1509868615.3,286047008.2,N
1509868635.1,286047010.6,Y
1509868655.9,286047002.5,P
1509868675.7,286046998.7,N
1509868695.5,286046999.6,N
1509868715.4,286047000.5,N
1509868735.2,286047005.4,N
1509868755.0,286047005.2,N
1509868755.9,286047005.2,N
1509868775.8,286047003.1,N
1509868795.6,286046999.8,N
